This demonstration page uses our WeatherBlox Daily Observations layout. Learn more.

Left ArrowRight Arrow

Hourly Observations for May 29, 2018

Temp ( °F °C ) Dew Point ( °F °C ) Humidity (%) Winds ( mph kmh ) Pressure ( in mb ) Visibility ( mi km ) Precip ( " mm )
12:53 am 00:53 Clear 72 22.2 50 10 46 46 N 5 7 29.82 1010 10 16 0.00 0.00
1:53 am 01:53 Clear 74 23.3 46 7.8 37 37 NW 7 11 29.80 1009 10 16 0.00 0.00
2:53 am 02:53 Clear 69 20.6 50 10 51 51 VRB 3 6 29.80 1009 10 16 0.00 0.00
3:53 am 03:53 Clear 68 20 50 10 53 53 N 6 9 29.79 1009 10 16 0.00 0.00
4:53 am 04:53 Clear 65 18.3 51 10.6 61 61 N 3 6 29.78 1009 10 16 0.00 0.00
5:53 am 05:53 Sunny 70 21.1 46 7.8 42 42 NNW 3 6 29.78 1008 10 16 0.00 0.00
6:53 am 06:53 Sunny 73 22.8 47 8.3 40 40 N 6 9 29.77 1008 10 16 0.00 0.00
7:53 am 07:53 Sunny 77 25 49 9.4 37 37 NNW 6 9 29.78 1008 10 16 0.00 0.00
8:53 am 08:53 Sunny 82 27.8 47 8.3 29 29 NNW 8 13 29.77 1008 10 16 0.00 0.00
9:53 am 09:53 Sunny 85 29.4 47 8.3 27 27 NNW 7 11 29.76 1008 10 16 0.00 0.00
10:53 am 10:53 Sunny 90 32.2 47 8.3 23 23 NNE 12 19 29.74 1007 10 16 0.00 0.00
11:53 am 11:53 Sunny 93 33.9 47 8.3 21 21 N 8 13 29.72 1007 10 16 0.00 0.00
12:53 pm 12:53 Sunny 93 33.9 41 5 16 16 Calm 29.70 1006 10 16 0.00 0.00
1:53 pm 13:53 Sunny 95 35 41 5 15 15 undefined N/A 29.68 1005 10 16 0.00 0.00
2:53 pm 14:53 Sunny 96 35.6 44 6.7 17 17 SSE 10 17 29.66 1004 10 16 0.00 0.00
3:53 pm 15:53 Sunny 97 36.1 43 6.1 16 16 S 12 19 29.63 1004 10 16 0.00 0.00
4:53 pm 16:53 Sunny 97 36.1 46 7.8 17 17 SE 15 24 29.61 1003 10 16 0.00 0.00
5:53 pm 17:53 Sunny 96 35.6 47 8.3 19 19 SSE 13 20 29.59 1002 10 16 0.00 0.00
6:53 pm 18:53 Mostly Sunny 95 35 46 7.8 19 19 S 8 13 29.57 1002 10 16 0.00 0.00
7:53 pm 19:53 Mostly Sunny 88 31.1 39 3.9 18 18 WNW 8 13 29.58 1002 10 16 0.00 0.00
8:53 pm 20:53 Clear 84 28.9 36 2.2 18 18 WNW 6 9 29.59 1002 10 16 0.00 0.00
9:53 pm 21:53 Clear 81 27.2 34 1.1 18 18 WNW 5 7 29.60 1002 10 16 0.00 0.00
10:53 pm 22:53 Clear 80 26.7 34 1.1 19 19 WNW 6 9 29.60 1002 10 16 0.00 0.00
11:53 pm 23:53 Clear 75 23.9 38 3.3 26 26 NW 6 9 29.61 1003 10 16 0.00 0.00

Powered by AerisWeather